Wind_Speed
48 48 48 48 47 48 46 42 39 39 37 36 34 34 37 35 32 33 36 37 37 35 34 35 34 32 31 32 33 34 34 34 35 34 35 36 36 35 35 37 38 37 40 41 43 45 48 50 48
49 50 48 49 49 50 48 44 43 42 42 40 39 37 38 39 35 30 29 32 36 37 39 39 37 34 35 36 37 38 38 38 38 38 38 38 38 37 37 40 41 42 43 45 46 47 50 52 51
52 51 50 49 50 50 50 47 46 46 46 44 42 40 41 41 41 38 32 30 32 32 34 38 39 38 38 40 41 42 44 41 40 40 41 40 40 40 41 44 45 46 47 48 49 51 52 54 52
56 54 51 51 50 53 52 52 48 48 47 45 45 44 44 43 43 43 41 35 33 33 34 35 37 40 43 44 45 47 46 43 42 42 42 41 42 44 46 47 48 48 49 51 52 53 55 56 54
58 58 54 54 52 55 55 52 53 51 50 50 49 49 46 47 46 44 46 43 38 40 40 37 39 42 42 44 45 46 44 43 42 41 41 43 44 47 48 49 50 49 52 54 54 55 57 58 55
59 58 57 58 54 56 55 55 53 54 52 50 51 49 48 47 45 46 45 48 46 43 41 40 41 43 43 42 43 43 43 40 41 42 44 47 48 50 51 52 51 53 54 56 58 58 59 59 54
59 58 59 58 58 58 60 55 56 55 55 53 52 51 49 48 48 45 45 47 47 45 47 48 48 48 48 46 45 43 43 42 44 46 48 50 51 53 55 54 54 57 58 60 60 59 59 58 54
62 65 61 60 59 62 61 60 57 57 57 59 55 53 51 51 51 50 49 49 50 49 48 48 49 48 48 48 47 47 47 47 49 50 51 53 54 56 57 58 59 61 61 61 62 60 59 55 53
64 64 65 66 63 61 60 60 61 57 60 58 59 58 57 55 54 54 54 53 52 51 51 52 53 53 53 52 51 53 53 53 54 55 57 57 59 60 61 62 63 63 64 64 62 61 56 52 52
61 63 69 71 68 65 61 63 63 61 59 58 58 58 57 58 59 59 59 59 59 57 55 55 57 56 57 58 58 58 60 61 61 61 61 60 61 63 65 67 68 69 66 66 64 59 55 56 54
62 60 67 72 72 69 68 65 65 64 65 62 61 59 56 59 59 62 63 66 66 66 63 61 61 60 60 61 62 62 64 64 65 64 64 65 66 68 70 70 71 69 68 65 63 62 62 59 61
67 69 67 68 72 72 71 70 68 67 68 67 63 59 63 62 61 64 66 67 67 67 67 66 67 66 66 66 66 66 67 67 67 70 71 72 72 71 73 74 71 70 66 64 64 67 63 64 68
78 73 69 70 72 69 69 71 72 70 66 69 67 64 62 62 63 63 66 68 69 71 71 70 70 70 70 70 70 70 70 71 72 74 75 75 75 74 72 73 73 67 69 72 72 69 70 69 72
72 69 63 65 67 60 65 66 69 71 70 68 70 71 69 66 63 64 66 69 71 70 69 66 64 67 70 70 71 71 71 73 75 77 78 77 76 76 77 72 73 76 74 68 70 69 72 75 75
67 67 63 58 58 58 54 61 66 66 68 69 69 72 72 68 67 68 66 64 67 70 66 64 63 66 70 71 72 73 75 76 78 79 76 79 80 81 77 79 74 72 72 72 75 79 81 85 83
67 67 64 62 57 53 51 54 52 58 65 66 67 67 71 73 73 72 70 70 71 70 70 66 70 71 71 72 74 75 78 80 80 81 80 78 75 75 79 76 74 75 78 79 83 88 85 82 78
65 61 61 64 62 58 53 55 58 57 56 59 62 62 63 65 69 70 68 69 71 72 72 70 75 76 77 77 80 80 81 81 81 75 75 79 83 85 84 81 81 82 86 87 87 84 83 80 82
61 61 61 63 64 59 57 56 56 62 61 58 59 61 62 63 65 67 70 72 73 73 68 74 78 80 78 76 77 76 77 76 75 82 85 85 86 87 90 90 91 91 89 86 84 85 86 87 90
66 65 64 66 68 62 59 59 59 56 57 60 60 58 63 66 66 70 71 69 68 70 73 75 76 77 77 75 76 78 81 82 83 84 87 88 89 91 88 89 90 89 88 89 90 93 95 101 100
63 63 62 64 67 67 65 62 63 60 58 57 58 58 58 60 63 66 67 68 68 69 70 73 75 77 77 78 80 80 80 83 85 82 83 79 84 86 89 90 92 92 97 101 104 105 107 106 103
58 56 57 63 68 68 68 64 63 63 63 63 63 63 62 63 63 64 66 67 68 68 71 73 75 77 77 77 79 80 78 77 77 87 86 89 91 91 95 97 99 108 107 112 115 111 107 108 107
60 61 62 59 65 66 66 65 65 63 62 65 66 65 65 66 67 68 68 67 68 69 70 70 72 74 76 78 80 81 81 82 86 88 94 97 99 101 108 106 112 116 118 116 116 115 113 112 112
68 65 64 58 60 67 64 59 62 62 63 67 66 63 64 66 67 68 69 70 71 72 73 75 77 79 81 83 84 87 88 90 92 95 98 100 102 104 107 110 114 116 116 117 117 117 117 117 117
70 67 63 64 62 62 64 62 63 62 66 66 65 65 66 66 67 69 71 72 73 74 75 77 80 83 85 89 91 93 95 96 98 100 103 105 108 111 113 113 114 115 115 116 117 118 119 120 120
71 67 67 67 62 59 63 63 63 66 67 66 66 67 66 66 67 68 70 72 75 77 79 80 83 87 91 94 96 97 99 101 104 107 109 111 113 114 114 113 113 114 114 116 118 120 122 124 124
69 70 68 66 64 63 68 63 63 67 67 66 67 67 68 68 69 71 73 75 77 79 81 83 87 91 93 95 96 98 100 103 106 109 110 112 112 113 113 113 114 116 119 120 122 124 126 126 128
66 69 70 68 67 68 66 63 64 66 67 67 66 66 67 68 69 72 75 78 79 80 81 83 85 87 88 90 94 98 101 104 107 108 108 109 110 112 114 117 119 121 124 125 126 128 130 130 129
63 64 68 69 73 70 67 66 66 68 68 68 67 68 70 71 73 75 77 78 79 80 81 84 86 88 92 96 99 101 103 103 103 105 107 109 113 115 117 117 118 121 125 129 131 133 133 129 128
64 64 64 66 70 67 67 67 70 71 70 70 70 72 72 72 72 75 76 77 79 81 84 87 90 93 96 98 97 98 99 102 105 107 111 112 111 112 115 119 123 127 130 133 133 133 131 131 126
61 61 63 63 64 63 63 64 67 68 70 70 71 72 72 71 73 74 75 77 80 82 85 89 93 94 91 91 95 99 102 105 106 107 108 113 116 118 121 124 127 131 135 136 133 129 124 114 106
Wind_Direction
240 242 241 241 239 241 242 246 247 252 251 247 246 249 250 252 251 256 258 259 259 257 259 255 255 260 268 270 273 272 273 274 277 280 283 286 290 293 300 303 309 314 316 319 321 322 324 326 325
240 239 241 242 240 239 241 242 246 247 250 254 251 250 252 249 252 254 265 271 262 262 262 255 254 263 271 273 274 275 271 272 273 278 282 284 289 292 297 300 304 310 314 317 319 320 321 323 322
243 239 237 240 240 243 240 239 240 245 247 249 252 250 251 250 253 256 262 267 258 262 267 261 266 268 273 277 278 276 272 270 271 274 278 282 287 292 295 298 303 306 310 315 316 317 318 318 319
244 242 237 236 239 242 243 239 240 242 244 249 252 254 253 250 252 255 257 262 257 259 262 266 270 270 275 280 279 278 270 268 270 272 274 281 286 290 292 296 300 304 308 312 313 314 314 315 316
246 244 239 237 236 239 241 241 239 240 243 248 250 253 255 255 256 255 256 258 259 256 257 263 269 272 274 277 274 273 269 271 273 276 277 281 284 287 290 293 299 303 306 307 309 310 311 311 312
245 245 244 240 237 239 240 241 243 242 243 245 248 250 252 256 258 258 258 259 260 260 260 262 266 271 276 278 276 273 274 275 277 278 280 283 285 287 289 294 297 301 303 305 307 308 309 308 308
243 244 244 242 241 241 239 240 243 244 244 244 246 250 251 254 254 256 256 259 260 260 260 261 264 269 272 272 273 274 275 277 278 279 280 283 285 287 290 295 297 298 301 303 305 306 306 305 304
244 243 241 243 239 240 241 241 241 241 244 243 245 246 250 252 254 255 255 256 257 258 260 262 263 266 268 271 272 275 276 277 278 280 282 284 287 290 292 294 295 298 301 302 303 304 302 301 301
246 245 244 243 242 243 241 243 239 240 243 244 249 247 247 250 253 255 256 256 258 260 262 264 266 269 271 272 274 276 276 277 280 282 283 285 287 289 291 294 296 297 300 300 300 299 298 295 296
254 254 247 246 244 244 243 242 241 240 242 243 246 250 250 251 254 256 256 256 258 259 260 263 266 268 271 273 275 277 278 280 282 283 284 285 288 290 293 294 295 297 297 297 297 297 292 291 292
257 265 253 248 245 244 246 244 242 242 242 242 245 247 250 250 252 255 257 257 259 260 260 261 263 267 270 273 275 277 280 282 283 285 286 287 288 291 291 292 293 294 293 292 294 292 289 290 292
259 264 252 246 246 245 244 244 243 241 241 243 244 247 252 251 252 255 257 260 262 264 264 266 266 267 270 272 274 276 278 281 283 285 287 287 289 290 290 291 293 292 291 289 288 287 288 291 292
260 260 249 245 245 244 243 243 245 244 244 244 245 246 247 250 254 256 258 261 264 265 267 268 271 272 272 274 275 277 279 282 283 283 284 287 289 291 291 291 289 287 286 283 289 288 288 290 289
250 247 242 243 245 241 240 239 242 243 243 245 245 247 249 251 252 256 260 262 264 267 269 271 271 272 273 275 277 279 280 281 281 283 285 287 288 288 286 286 285 282 287 284 286 289 288 290 289
241 239 238 238 243 245 238 240 239 243 244 244 246 247 250 253 256 256 258 262 264 267 268 268 272 273 274 278 278 279 280 281 282 282 285 285 287 285 287 283 285 282 281 282 285 286 289 291 291
238 236 237 234 240 245 242 233 237 241 244 246 247 250 249 252 254 255 257 259 262 265 268 268 272 276 275 278 280 281 283 285 285 286 287 286 284 283 284 279 278 280 283 285 285 285 287 291 293
236 235 236 234 236 241 243 241 235 240 243 247 248 252 254 257 257 259 261 261 261 264 268 269 272 275 277 279 280 283 284 285 286 283 281 281 282 284 280 277 278 280 283 288 289 288 289 291 290
237 233 235 235 234 240 240 242 243 241 242 245 249 249 249 251 254 255 258 262 265 266 267 271 275 277 278 279 279 281 280 282 277 277 281 280 280 279 278 277 283 285 287 288 288 289 288 286 288
231 230 232 231 232 233 235 237 240 240 240 242 245 249 255 256 259 260 261 265 268 269 270 272 274 275 277 278 278 279 280 280 278 279 279 281 281 282 283 283 285 286 288 289 287 285 286 288 288
229 229 229 232 230 231 235 237 239 243 245 246 246 249 253 258 259 262 266 267 268 270 271 272 273 274 275 275 278 280 280 279 281 281 286 288 286 285 285 284 286 285 285 287 288 287 287 287 286
227 224 226 228 229 231 233 237 241 243 247 250 251 251 253 254 257 262 266 269 270 271 272 274 274 276 278 279 280 283 287 282 284 282 285 283 283 281 282 282 281 286 285 286 287 287 286 286 285
223 222 224 227 230 230 235 235 239 244 246 250 253 254 258 261 262 265 267 270 271 272 272 273 272 275 277 278 279 280 281 283 283 283 282 284 284 283 284 281 282 283 284 286 286 285 285 285 284
220 224 225 229 231 230 233 235 242 245 248 251 253 255 257 259 263 265 266 267 268 271 273 274 276 278 279 280 281 282 282 282 282 282 282 282 284 285 286 287 287 288 287 287 287 286 286 286 285
221 225 227 230 231 231 236 238 243 246 250 253 256 258 259 261 265 267 269 270 271 272 273 275 276 278 280 280 281 282 282 282 283 285 287 288 289 288 288 288 288 288 287 287 288 288 288 288 287
221 224 226 229 233 232 235 237 242 248 252 254 257 259 261 264 267 270 272 274 275 276 278 281 282 282 282 283 283 284 285 286 287 288 289 288 288 289 289 289 289 290 291 290 289 289 289 288 288
220 224 227 229 230 232 235 238 243 249 253 255 259 261 263 266 268 270 273 275 276 278 280 283 284 284 285 286 288 288 288 288 289 290 290 290 292 292 292 292 291 290 290 289 288 287 287 287 288
221 224 228 230 232 234 238 240 244 249 252 255 259 262 265 268 270 273 274 276 279 281 283 285 287 287 288 288 287 288 289 289 289 290 290 290 291 292 292 292 292 292 291 290 289 289 289 290 290
222 226 229 231 233 236 239 242 245 249 254 257 261 264 267 270 273 276 277 279 281 284 286 286 287 287 288 289 290 290 290 290 290 291 292 293 293 293 293 293 292 291 290 289 289 290 291 294 294
222 225 229 234 239 240 243 246 249 252 255 258 262 265 268 271 274 277 279 281 283 285 286 288 289 290 290 291 291 291 292 293 294 294 293 293 293 292 292 292 292 292 292 292 292 293 295 296 295
224 227 231 235 239 241 243 247 251 254 257 259 263 267 270 272 274 277 280 283 284 286 287 289 290 291 292 291 292 294 294 294 294 294 296 296 295 294 293 293 293 293 293 295 296 296 296 295 294
Height
10906 10909 10913 10917 10919 10920 10923 10925 10926 10927 10929 10929 10930 10930 10930 10932 10933 10934 10933 10934 10934 10934 10934 10934 10933 10932 10932 10930 10929 10928 10926 10925 10924 10923 10922 10920 10919 10918 10916 10915 10913 10911 10909 10907 10905 10902 10898 10896 10893
10897 10900 10904 10908 10911 10912 10916 10919 10919 10920 10923 10924 10925 10926 10925 10927 10929 10930 10929 10929 10929 10929 10929 10929 10928 10927 10927 10925 10924 10923 10921 10920 10919 10918 10917 10915 10913 10912 10911 10909 10907 10905 10903 10901 10899 10897 10894 10890 10886
10886 10891 10895 10900 10903 10905 10908 10912 10911 10912 10915 10918 10919 10920 10920 10921 10924 10925 10926 10924 10924 10924 10923 10923 10923 10922 10921 10920 10919 10917 10916 10914 10913 10912 10910 10909 10907 10906 10905 10903 10901 10898 10896 10895 10893 10891 10888 10884 10881
10875 10881 10887 10891 10895 10895 10899 10904 10905 10905 10907 10912 10913 10915 10914 10915 10917 10919 10920 10920 10919 10919 10918 10918 10917 10916 10914 10913 10912 10910 10909 10908 10906 10905 10904 10903 10902 10900 10899 10896 10894 10891 10888 10887 10885 10884 10881 10878 10875
10865 10870 10876 10881 10886 10884 10889 10895 10897 10899 10901 10904 10906 10909 10909 10909 10910 10912 10913 10914 10913 10912 10911 10911 10910 10909 10908 10906 10905 10904 10902 10901 10900 10898 10897 10896 10895 10893 10891 10889 10887 10884 10881 10879 10878 10876 10873 10871 10868
10856 10860 10866 10870 10875 10877 10880 10886 10889 10892 10895 10896 10898 10901 10902 10903 10905 10905 10905 10905 10906 10906 10905 10904 10903 10902 10901 10900 10898 10897 10896 10895 10893 10891 10889 10888 10887 10884 10883 10881 10878 10876 10873 10871 10869 10867 10864 10862 10861
10845 10850 10854 10859 10865 10866 10871 10876 10880 10884 10885 10887 10890 10893 10894 10896 10897 10897 10896 10897 10897 10897 10897 10898 10897 10896 10896 10893 10892 10890 10889 10888 10886 10883 10882 10880 10878 10877 10874 10872 10870 10867 10865 10862 10859 10857 10855 10853 10852
10833 10838 10843 10848 10853 10855 10861 10866 10870 10874 10875 10877 10881 10885 10887 10887 10887 10887 10887 10887 10888 10889 10889 10889 10888 10889 10887 10886 10885 10882 10880 10880 10878 10876 10874 10872 10870 10867 10865 10863 10861 10858 10855 10852 10849 10847 10845 10843 10841
10821 10828 10833 10835 10841 10844 10853 10855 10860 10865 10865 10869 10871 10876 10879 10879 10879 10879 10879 10878 10878 10880 10881 10879 10879 10879 10878 10878 10877 10874 10873 10871 10870 10869 10865 10863 10860 10858 10855 10852 10849 10847 10844 10841 10839 10837 10835 10833 10832
10810 10816 10818 10820 10831 10835 10841 10843 10848 10854 10854 10859 10862 10867 10870 10870 10871 10870 10869 10868 10868 10870 10872 10872 10869 10870 10869 10869 10868 10866 10863 10861 10860 10858 10855 10852 10850 10847 10844 10841 10838 10835 10833 10830 10827 10825 10823 10822 10821
10799 10804 10801 10807 10816 10824 10829 10832 10836 10842 10845 10848 10853 10857 10861 10862 10860 10859 10858 10857 10857 10858 10860 10861 10861 10861 10860 10859 10858 10856 10852 10850 10847 10845 10844 10841 10839 10835 10831 10828 10826 10824 10821 10818 10816 10813 10811 10810 10809
10785 10787 10788 10793 10801 10810 10815 10820 10823 10828 10833 10837 10843 10848 10850 10851 10852 10850 10848 10848 10848 10847 10850 10851 10850 10851 10850 10849 10847 10846 10843 10839 10835 10832 10829 10827 10826 10823 10819 10816 10813 10811 10809 10806 10804 10800 10799 10797 10795
10771 10774 10774 10780 10788 10796 10803 10808 10811 10818 10823 10826 10832 10836 10835 10839 10844 10844 10842 10841 10838 10836 10837 10840 10839 10840 10839 10838 10836 10834 10831 10828 10825 10820 10816 10814 10811 10809 10806 10802 10800 10797 10794 10792 10789 10787 10785 10783 10780
10753 10757 10762 10769 10775 10784 10789 10794 10799 10804 10810 10815 10820 10821 10823 10827 10834 10833 10831 10830 10827 10825 10825 10828 10826 10825 10825 10825 10823 10821 10819 10815 10811 10808 10805 10802 10798 10795 10792 10789 10785 10782 10780 10777 10775 10772 10770 10767 10764
10737 10743 10751 10759 10764 10772 10779 10783 10790 10793 10797 10803 10807 10810 10812 10815 10818 10821 10820 10818 10816 10816 10818 10815 10814 10810 10812 10812 10809 10808 10806 10803 10799 10796 10793 10790 10786 10782 10779 10774 10772 10768 10765 10763 10759 10756 10753 10750 10748
10721 10730 10741 10750 10755 10762 10769 10773 10778 10781 10786 10790 10795 10798 10800 10800 10804 10805 10807 10805 10805 10806 10806 10806 10802 10799 10798 10799 10797 10793 10790 10787 10784 10781 10778 10774 10770 10766 10763 10759 10756 10754 10751 10747 10744 10741 10737 10733 10729
10709 10724 10732 10738 10744 10749 10757 10762 10768 10770 10774 10777 10783 10786 10788 10790 10792 10794 10792 10793 10794 10794 10797 10792 10790 10788 10787 10788 10785 10781 10776 10773 10770 10766 10761 10757 10754 10751 10747 10743 10739 10735 10732 10729 10726 10722 10720 10717 10713
10703 10711 10719 10727 10733 10737 10745 10749 10755 10759 10764 10767 10770 10774 10776 10778 10779 10779 10780 10782 10783 10785 10784 10779 10777 10776 10774 10774 10771 10767 10763 10760 10756 10751 10746 10741 10738 10734 10729 10724 10720 10716 10712 10709 10707 10704 10701 10698 10694
10684 10695 10703 10710 10718 10725 10731 10737 10741 10745 10750 10755 10760 10763 10764 10768 10768 10768 10769 10771 10770 10770 10770 10767 10765 10763 10760 10758 10755 10750 10746 10742 10738 10734 10729 10725 10721 10716 10710 10705 10700 10695 10692 10689 10686 10683 10679 10675 10673
10671 10682 10692 10699 10705 10713 10718 10726 10731 10737 10742 10747 10751 10753 10756 10758 10758 10754 10755 10757 10759 10757 10756 10754 10752 10748 10744 10741 10738 10734 10729 10725 10719 10714 10710 10704 10699 10693 10688 10684 10678 10673 10669 10665 10662 10659 10654 10649 10645
10663 10674 10681 10685 10691 10700 10709 10717 10722 10727 10731 10735 10738 10743 10747 10747 10746 10744 10744 10744 10743 10744 10741 10738 10735 10732 10728 10724 10720 10714 10709 10705 10701 10695 10689 10685 10679 10674 10669 10663 10657 10651 10645 10639 10635 10631 10626 10623 10617
10653 10658 10664 10673 10681 10691 10696 10708 10712 10717 10723 10724 10726 10732 10734 10733 10735 10734 10732 10731 10729 10727 10725 10722 10719 10715 10711 10707 10702 10697 10692 10687 10682 10675 10669 10664 10658 10651 10645 10638 10632 10626 10619 10612 10606 10601 10597 10593 10587
10637 10644 10656 10664 10671 10678 10687 10698 10701 10706 10710 10709 10714 10721 10722 10722 10723 10722 10720 10717 10715 10712 10710 10706 10703 10699 10695 10689 10683 10678 10673 10669 10662 10657 10650 10643 10637 10628 10620 10612 10604 10595 10586 10579 10573 10569 10564 10559 10554
10625 10637 10648 10654 10659 10673 10679 10689 10691 10696 10695 10699 10704 10708 10709 10710 10710 10708 10707 10705 10702 10699 10696 10693 10689 10683 10677 10671 10665 10660 10654 10648 10643 10636 10628 10619 10610 10602 10594 10586 10576 10568 10559 10552 10544 10536 10528 10522 10516
10617 10628 10636 10643 10655 10670 10670 10677 10683 10682 10685 10689 10693 10695 10697 10698 10698 10696 10693 10691 10687 10683 10680 10677 10673 10666 10659 10652 10647 10640 10633 10626 10619 10611 10602 10594 10585 10576 10568 10558 10548 10539 10530 10520 10511 10503 10494 10486 10479
10609 10618 10628 10637 10647 10653 10653 10670 10675 10670 10674 10680 10682 10684 10685 10685 10685 10684 10680 10676 10671 10668 10665 10662 10656 10649 10641 10634 10627 10619 10611 10603 10595 10585 10575 10565 10554 10544 10534 10525 10516 10506 10497 10487 10478 10469 10460 10453 10445
10602 10611 10619 10629 10637 10642 10651 10661 10662 10661 10664 10668 10671 10673 10672 10672 10671 10669 10665 10661 10658 10654 10650 10645 10636 10628 10622 10615 10607 10598 10590 10581 10571 10561 10551 10540 10530 10519 10508 10496 10484 10472 10460 10448 10439 10430 10420 10414 10406
10597 10604 10612 10621 10624 10634 10644 10650 10652 10652 10654 10658 10661 10661 10660 10660 10658 10654 10648 10646 10642 10638 10633 10625 10618 10611 10603 10594 10586 10576 10566 10556 10546 10536 10526 10514 10501 10490 10478 10465 10453 10439 10426 10413 10403 10393 10381 10376 10365
10588 10597 10605 10612 10618 10630 10636 10641 10640 10642 10646 10648 10649 10648 10649 10647 10645 10639 10636 10633 10628 10622 10614 10606 10599 10590 10582 10573 10563 10552 10541 10530 10519 10508 10496 10485 10472 10459 10447 10434 10419 10405 10392 10377 10366 10356 10345 10335 10325
10584 10593 10599 10604 10610 10619 10625 10630 10631 10633 10635 10637 10638 10638 10636 10635 10631 10627 10624 10619 10613 10606 10598 10590 10580 10571 10561 10549 10539 10529 10518 10506 10493 10479 10465 10451 10437 10423 10409 10395 10381 10366 10353 10340 10327 10320 10309 10298 10288